Location: Austin
(30.3000°N, 97.7500°W)
Time: 02:54:48
(UTC-05:00)

Cosmos 1707 - Pass Details

Date: 18 March 2023
Orbit: 501 x 514 km, 82.5° (Epoch: 01 April)

Event Time Altitude Azimuth Distance (km) Brightness Sun altitude
Rises 21:38:42 0° 347° (NNW) 2,618 6.6 -25.9°
Reaches altitude 10° 21:40:53 10° 342° (NNW) 1,727 5.7 -26.4°
Enters shadow 21:43:23 35° 317° (NW) 827 4.1 -26.9°
